SCP
2 2 2 2 1 1 0 0 0 0 0 0 0 0 0 0 0 0 0 0 0 0 0 0 0 0 0 0 0 0 0 0 0 0 0 0 0 0 0 0 0 0 0
2 1 1 1 1 0 0 0 0 0 0 0 0 0 0 0 0 0 0 0 0 0 0 0 0 0 0 0 0 0 0 0 0 0 0 0 0 0 0 0 0 0 0
1 1 1 1 0 0 0 0 0 0 0 0 0 0 0 0 0 0 0 0 0 0 0 0 0 0 0 0 0 0 0 0 0 0 0 0 0 0 0 0 0 0 0
1 1 0 0 0 0 0 0 0 0 0 0 0 0 0 0 0 0 0 0 0 0 0 0 0 0 0 0 0 0 0 0 0 0 0 0 0 0 0 0 0 0 0
1 0 0 0 0 0 0 0 0 0 0 0 0 0 0 0 0 0 0 0 0 0 0 0 0 0 0 0 0 0 0 0 0 0 0 0 0 0 0 0 0 0 0
0 0 0 0 0 0 0 0 0 0 0 0 0 0 0 0 0 0 0 0 0 0 0 0 0 0 0 0 0 0 0 0 0 0 0 0 0 0 0 0 0 0 0
0 0 0 0 0 0 0 0 0 0 0 0 0 0 0 0 0 0 0 0 0 0 0 0 0 0 0 0 0 0 0 0 0 0 0 0 0 0 0 0 0 0 0
0 0 0 0 0 0 0 0 0 0 0 0 0 0 0 0 0 0 0 0 0 0 0 0 0 0 0 0 0 0 0 0 0 0 0 0 0 0 0 0 0 0 0
0 0 0 0 0 0 0 0 0 0 0 0 0 0 0 0 0 0 0 0 0 0 0 0 0 0 0 0 0 0 0 0 0 0 0 0 0 0 0 0 0 0 0
0 0 0 0 0 0 0 0 0 0 0 0 0 0 0 0 0 0 0 0 0 0 0 0 0 0 0 0 0 0 0 0 0 0 0 0 0 0 0 0 0 0 0
0 0 0 0 0 0 0 0 0 0 0 0 0 0 0 0 0 0 0 0 0 0 0 0 0 0 0 0 0 0 0 0 0 0 0 0 0 0 0 0 0 0 0
0 0 0 0 0 0 0 0 0 0 0 0 0 0 0 0 0 0 0 0 0 0 0 0 0 0 0 0 0 0 0 0 0 0 0 0 0 0 0 0 0 0 0
0 0 0 0 0 0 0 0 0 0 0 0 0 0 0 0 0 0 0 0 0 0 0 0 0 0 0 0 0 0 0 0 0 0 0 0 0 0 0 0 0 0 0
0 0 0 0 0 0 0 0 0 0 0 0 0 0 0 0 0 0 0 0 0 0 0 0 0 0 0 0 0 0 0 0 0 0 0 0 0 0 0 0 0 0 0
0 0 0 0 0 0 0 0 0 0 0 0 0 0 0 0 0 0 0 0 0 0 0 0 0 0 0 0 0 0 0 0 0 0 0 0 0 0 0 0 0 0 0
0 0 0 0 0 0 0 0 0 0 0 0 0 0 0 0 0 0 0 0 0 0 0 0 0 0 0 0 0 0 0 0 0 0 0 0 0 0 0 0 0 0 0
0 0 0 0 0 0 0 0 0 0 0 0 0 0 0 0 0 0 0 0 0 0 0 0 0 0 0 0 0 0 0 0 0 0 0 0 0 0 0 0 0 0 0
0 0 0 0 0 0 0 0 0 0 0 0 0 0 0 0 0 0 0 0 0 0 0 0 0 0 0 0 0 0 0 0 0 0 0 0 0 0 0 0 0 0 0
0 0 0 0 0 0 0 0 0 0 0 0 0 0 0 0 0 0 0 0 0 0 0 0 0 0 0 0 0 0 0 0 0 0 0 0 0 0 0 0 0 0 0
0 0 0 0 0 0 0 0 0 0 0 0 0 0 0 0 0 0 0 0 0 0 0 0 0 0 0 0 0 0 0 0 0 0 0 0 0 0 0 0 0 0 0
0 0 0 0 0 0 0 0 0 0 0 0 0 0 0 0 0 0 0 0 0 0 0 0 0 0 0 0 0 0 0 0 0 0 0 0 0 0 0 0 0 0 0
0 0 0 0 0 0 0 0 0 0 0 0 0 0 0 0 0 0 0 0 0 0 0 0 0 0 0 0 0 0 0 0 0 0 0 0 0 0 0 0 0 0 0
0 0 0 0 0 0 0 0 0 0 0 0 0 0 0 0 0 0 0 0 0 0 0 0 0 0 0 0 0 0 0 0 0 0 0 0 0 0 0 0 0 0 0
0 0 0 0 0 0 0 0 0 0 0 0 0 0 0 0 0 0 0 0 0 0 0 0 0 0 0 0 0 0 0 0 0 0 0 0 0 0 0 0 0 0 0
0 0 0 0 0 0 0 0 0 0 0 0 0 0 0 0 0 0 0 0 0 0 0 0 0 0 0 0 0 0 0 0 0 0 0 0 0 0 0 0 0 0 0
0 0 0 0 0 0 0 0 0 0 0 0 0 0 0 0 0 0 0 0 0 0 0 0 0 0 0 0 0 0 0 0 0 0 0 0 0 0 0 0 0 0 0
Wind_Speed
2 1 1 1 1 1 0 1 1 1 1 1 1 0 0 0 0 0 0 1 1 1 2 1 2 2 1 1 1 1 1 2 3 3 1 1 2 2 2 2 2 2 2
2 2 1 0 0 0 1 1 1 1 1 1 1 0 0 0 0 0 1 1 1 1 2 2 2 2 2 1 1 1 1 2 2 3 2 1 2 3 2 2 2 2 2
2 2 1 0 0 1 1 1 1 0 1 1 0 0 0 1 1 1 1 1 1 2 2 2 2 2 2 2 2 2 2 2 2 2 2 2 2 2 2 2 2 1 2
2 2 2 1 1 1 1 1 1 1 0 0 0 0 1 1 1 1 1 1 1 2 2 2 2 2 2 3 2 2 2 2 1 1 2 2 2 2 1 2 2 1 2
2 2 2 1 1 0 1 1 1 1 1 0 0 1 1 1 1 1 1 1 1 2 3 2 2 3 3 3 2 2 2 2 2 2 2 2 2 1 2 2 2 2 2
2 2 1 1 0 0 1 1 1 1 1 1 1 1 1 1 2 2 2 1 2 2 3 3 3 3 4 5 5 4 3 3 3 2 2 3 3 3 2 2 1 1 2
2 2 1 1 1 0 0 1 1 1 1 1 2 1 1 3 4 3 3 1 1 2 2 3 3 3 4 3 4 5 4 4 6 4 4 5 4 3 3 2 2 3 3
1 1 1 1 1 1 0 0 1 1 0 1 1 2 2 4 4 4 3 1 1 2 2 2 2 4 4 3 2 3 3 4 4 4 4 5 4 3 3 3 3 2 2
1 1 1 2 1 1 0 1 1 1 1 1 2 1 2 4 5 4 2 1 1 3 3 3 2 2 5 3 1 2 4 5 5 4 5 6 6 6 4 2 1 1 2
2 2 1 1 1 1 1 1 1 1 1 2 2 2 2 3 4 4 2 0 1 2 3 3 4 4 5 4 2 2 4 5 5 5 4 4 4 5 6 5 4 3 2
2 2 1 1 1 2 1 1 1 1 1 2 2 2 2 3 4 4 2 1 1 2 2 3 4 6 6 5 4 3 6 6 5 4 4 4 3 3 4 5 5 5 4
2 1 1 1 1 1 1 1 1 1 1 2 2 3 3 3 3 3 3 2 2 2 3 3 4 7 8 8 5 6 8 6 3 3 3 3 3 3 3 4 6 6 5
2 1 1 1 1 1 1 1 1 1 1 2 2 3 4 3 3 4 4 4 4 3 4 7 8 9 9 7 8 9 6 3 2 3 3 4 3 3 3 2 3 3 4
2 1 2 1 2 2 1 1 2 2 2 2 2 3 3 3 3 2 2 2 3 3 3 6 8 8 6 6 7 5 3 3 3 4 4 4 3 3 2 2 2 2 2
2 1 2 2 2 2 2 2 3 3 4 4 3 3 3 4 5 5 3 2 2 3 3 3 3 3 4 4 4 4 3 3 3 3 3 3 3 3 3 2 2 2 2
2 1 1 1 1 2 2 3 4 5 6 7 7 6 5 7 8 7 7 6 6 5 2 3 4 4 4 5 5 5 4 4 4 3 3 4 4 3 3 2 2 3 3
3 2 2 1 2 2 2 2 4 5 5 6 8 8 8 9 8 8 7 7 6 3 2 4 5 5 5 5 5 5 5 5 3 3 4 4 4 3 3 3 3 3 4
3 3 3 2 2 2 2 3 3 3 4 5 6 8 9 10 10 8 6 3 3 2 3 5 5 5 5 5 5 5 5 5 3 3 4 4 4 4 4 4 4 4 4
3 2 2 2 2 2 2 3 3 3 4 4 4 5 7 7 8 8 4 2 4 5 4 5 5 5 5 5 5 5 4 4 4 3 4 4 4 3 4 4 4 6 5
3 4 4 2 2 2 2 3 3 3 4 4 4 5 3 2 3 4 3 3 4 5 5 5 5 5 5 5 5 4 4 4 4 4 4 4 4 3 4 5 5 4 4
3 3 4 3 3 3 3 3 3 3 4 4 5 5 4 3 4 4 4 4 5 5 6 5 5 5 5 4 3 3 4 3 3 3 3 4 3 3 3 4 5 5 4
2 2 2 3 3 3 3 3 3 4 4 4 4 5 5 3 3 4 4 5 5 5 5 5 5 5 4 4 3 3 3 3 4 4 4 4 4 3 3 3 4 3 3
2 2 2 2 3 3 3 3 3 3 4 4 4 4 3 3 4 4 4 4 4 4 4 3 4 4 4 3 2 2 3 3 4 4 4 4 4 4 4 4 5 4 4
2 2 2 2 2 2 3 3 4 4 4 4 3 3 3 3 3 4 4 4 3 3 3 3 3 3 4 3 2 2 2 3 4 4 4 4 5 4 4 4 5 5 5
2 2 3 3 3 3 3 3 4 4 4 3 3 3 3 3 3 3 3 3 3 3 4 3 3 3 4 4 3 3 4 5 4 4 4 4 5 5 5 5 4 5 5
2 2 3 3 3 3 3 3 4 4 3 3 3 3 3 3 3 3 3 3 3 3 3 3 3 4 5 4 5 5 5 5 6 6 4 4 5 5 4 4 5 5 5
Wind_Direction
135 129 103 67 33 17 338 269 248 248 225 197 207 242 225 306 353 63 307 337 2 331 328 334 308 297 308 303 288 256 232 202 236 270 271 285 277 273 282 275 257 249 234
153 143 126 94 80 311 298 292 282 300 295 260 214 137 38 20 48 89 310 324 303 308 307 318 311 323 316 299 290 272 255 227 213 251 272 274 260 259 260 264 264 253 237
140 132 121 80 272 286 296 298 295 330 342 321 313 134 237 250 273 271 244 262 269 267 269 279 292 314 316 303 290 279 268 259 217 219 253 265 265 266 275 276 271 284 256
136 136 149 213 232 251 277 293 309 313 300 318 309 249 267 284 295 280 264 300 299 292 285 280 278 268 272 283 289 280 275 267 246 235 251 265 264 265 235 258 284 284 275
145 151 191 226 240 277 327 310 315 317 266 217 111 331 332 324 291 275 276 291 301 309 314 303 280 282 283 280 275 265 264 251 243 243 257 269 268 261 242 237 252 275 279
140 164 196 203 204 329 290 297 339 343 338 4 357 326 332 320 301 293 271 275 281 291 305 308 301 306 304 302 293 275 248 233 235 235 246 245 253 244 232 222 221 234 274
159 165 183 159 155 222 216 34 6 338 3 353 333 327 311 301 303 307 291 272 284 291 293 298 305 313 312 304 305 308 301 269 240 224 232 237 238 231 215 223 221 217 232
155 161 173 166 169 175 110 26 302 295 312 303 305 298 302 303 309 313 308 326 319 308 295 284 281 297 307 299 305 320 313 302 278 240 231 238 237 229 215 221 217 229 265
157 176 177 158 154 151 230 278 277 289 305 295 288 292 292 301 313 315 312 1 333 321 321 319 294 287 308 311 308 309 315 311 305 279 248 243 242 241 218 196 197 191 254
189 184 176 163 162 188 236 264 284 286 283 304 314 303 282 292 313 318 296 150 298 304 318 321 314 298 302 308 289 285 299 300 310 315 302 281 260 250 230 208 201 200 211
189 171 187 214 210 213 236 262 280 300 319 321 318 308 296 286 304 314 306 186 229 274 294 299 302 307 304 301 288 265 267 279 295 296 294 292 283 260 238 217 207 200 200
152 151 211 254 252 206 227 294 307 309 318 308 309 309 301 296 290 297 302 258 234 241 270 277 282 296 300 298 289 273 276 280 281 289 289 286 278 268 252 232 218 215 215
138 175 252 276 286 259 226 254 289 297 288 289 284 285 292 293 290 287 294 290 269 243 260 274 285 291 297 294 285 285 282 261 257 268 273 271 262 259 259 255 238 220 227
169 224 254 268 287 295 283 246 234 251 261 271 271 275 284 292 292 294 295 293 290 283 282 287 292 292 289 281 288 294 274 244 232 245 257 265 274 276 264 242 233 219 240
185 231 256 251 257 285 287 262 240 241 233 233 247 246 253 275 275 265 259 267 269 275 299 306 311 313 312 306 302 293 283 271 252 246 247 258 267 271 268 242 218 207 215
192 244 253 254 269 271 283 307 301 269 270 259 247 241 254 252 263 272 274 276 278 277 271 279 285 283 282 283 288 293 287 271 259 251 250 247 248 253 263 259 227 217 232
195 226 248 250 256 267 273 279 302 312 300 277 265 258 250 257 264 271 281 292 290 267 249 269 274 274 274 274 271 269 271 269 256 247 248 250 248 247 244 249 245 239 241
209 231 237 243 248 252 256 259 255 267 296 299 285 266 261 262 266 272 277 300 298 260 242 260 269 271 269 270 270 269 271 275 264 249 246 248 244 240 241 242 239 239 243
211 232 241 250 252 249 260 274 273 270 270 278 293 295 277 272 275 273 257 228 257 269 264 263 265 268 268 267 267 267 266 269 269 264 257 255 249 238 244 246 242 244 241
226 239 236 242 258 267 270 274 280 281 280 280 279 279 290 296 287 281 250 240 252 264 269 271 273 273 272 269 266 266 273 278 283 275 267 261 253 239 245 248 245 240 238
230 249 254 258 256 258 264 266 268 271 276 278 276 275 271 256 264 272 272 262 255 259 265 267 270 275 272 266 262 265 273 278 279 281 280 272 263 256 252 250 247 244 242
212 232 243 245 256 262 265 269 274 277 276 276 280 286 284 267 269 275 277 275 267 260 260 263 268 268 269 266 256 254 262 270 279 284 286 287 280 267 259 256 260 258 251
211 234 259 265 262 268 275 277 273 273 276 276 279 287 290 274 270 270 276 282 284 282 277 272 273 281 288 288 279 266 265 268 269 272 275 279 282 277 266 256 256 258 255
218 234 254 271 271 267 265 271 278 280 281 286 288 284 279 272 274 280 285 287 293 296 298 298 291 300 313 314 300 290 290 294 295 286 277 273 276 278 276 274 271 265 259
228 240 249 256 259 264 269 278 286 289 290 290 289 288 287 290 295 294 292 294 303 308 313 318 316 315 315 316 318 316 316 314 311 303 293 281 276 276 277 277 276 277 273
237 243 248 257 264 269 273 277 281 284 284 282 279 276 284 292 297 297 297 307 317 318 318 321 331 336 337 336 333 329 325 321 319 313 300 285 282 279 279 274 274 271 274